Location: Normandy Village
(37.8755°N, 122.2655°W)
Time: 21:54:55
(UTC+00:00)

Meteor 2-19 Rocket - Pass Details

Date: 22 September 2019
Orbit: 935 x 959 km, 82.5° (Epoch: 15 October)

Event Time Altitude Azimuth Distance (km) Brightness Sun altitude
Rises 13:27:28 0° 190° (S) 3,621 7.3 -6.6°
Reaches altitude 10° 13:29:58 10° 192° (SSW) 2,676 6.6 -6.1°
Maximum altitude 13:36:05 75° 278° (W) 989 4.5 -4.9°
Drops below altitude 10° 13:42:13 10° 4° (N) 2,678 6.9 -3.7°
Sets 13:44:43 0° 6° (N) 3,623 7.6 -3.2°
